Location: Bury
(49.3131°N, 2.3440°E)
Time: 11:51:44
(UTC+00:00)

Daily predictions for brighter satellites

Satellite Brightness Start Highest point End
(mag) Time Altitude Azimuth Time Altitude Azimuth Time Altitude Azimuth
Cosmos 1656 3.8 16:24:30 10° NNW 16:30:04 84° WSW 16:35:40 10° SSE
Cosmos 1933 4.4 16:30:34 10° SE 16:33:56 26° E 16:37:19 10° NNE
USA 229 DEB 3.9 16:27:29 10° NW 16:34:47 81° NE 16:42:34 10° SE
USA 229 3.9 16:27:34 10° NW 16:34:52 81° NE 16:42:39 10° SE
Cosmos 1464 Rocket 4.1 16:29:30 10° S 16:35:52 81° E 16:42:17 10° N
Cosmos 1937 Rocket 3.8 16:31:15 10° NNW 16:36:24 46° ENE 16:41:29 10° SE
Cosmos 1500 Rocket 3.6 16:35:02 10° N 16:39:27 58° ENE 16:43:48 10° SSE
Cosmos 1666 4.4 16:37:34 10° NNE 16:39:31 14° ENE 16:41:25 10° E
Spot 1 4.4 16:35:05 10° NNE 16:39:45 63° ESE 16:44:39 10° S
Nadezhda 4 Rocket 4.0 16:34:54 10° N 16:41:16 79° E 16:47:36 10° SSE
SL-24 R/B - RUBIN 2 4.0 16:37:19 10° NNW 16:41:45 42° NE 16:45:54 10° ESE
SeaSat 1 3.8 16:37:57 10° NNE 16:42:22 34° NW 16:46:46 10° WSW
Cosmos 2322 Rocket 3.8 16:39:28 10° N 16:42:44 15° NNE 16:45:58 10° ENE
ATLAS 2AS CENTAUR R/B 4.1 16:36:13 10° W 16:43:00 31° NNW 16:49:31 10° NE
Cosmos 990 Rocket 4.0 16:38:11 10° NNW 16:43:25 88° ENE 16:48:35 10° SSE
Cosmos 1697 Rocket 2.6 16:40:05 10° NNW 16:45:43 70° ENE 16:51:19 10° SE
FengYun 1-2 T 4.2 16:41:12 10° SSE 16:46:45 71° ENE 16:52:17 10° N
Cosmos 372 Rocket 4.5 16:42:40 10° NNW 16:47:33 38° ENE 16:52:26 10° SE
Cosmos 1271 Rocket 4.3 16:44:17 10° SW 16:47:56 36° WNW 16:51:41 10° N
Sich 1 3.6 16:45:09 10° N 16:49:07 35° ENE 16:53:05 10° SE
Cosmos 1980 Rocket 2.5 16:44:30 10° NNW 16:49:57 44° NE 16:55:19 10° SE
NOAA 6 4.0 16:45:05 10° SSE 16:50:08 61° ENE 16:55:12 10° N
Cosmos 1805 Rocket 3.8 16:46:59 10° N 16:51:11 46° ENE 16:55:21 10° SSE
Cosmos 2369 3.8 16:46:17 10° NNW 16:51:56 55° NE 16:57:32 10° SE
Cosmos 2221 2.8 16:47:48 10° SSW 16:52:04 72° WNW 16:56:24 10° N
CZ-4C R/B 3.1 16:49:25 10° NW 16:56:07 52° NE 17:04:04 10° ESE
USA 234 3.3 16:49:46 10° ESE 16:56:20 89° SSW 17:02:55 10° WNW
Cosmos 1842 Rocket 3.8 16:52:29 10° SSW 16:56:57 75° W 17:01:27 10° N
Cosmos 1092 Rocket 4.0 16:50:50 10° N 16:57:10 64° ENE 17:03:26 10° SSE
Cosmos 2084 4.2 16:53:47 10° NW 16:58:00 57° SW 17:02:23 10° SSE
NOSS 3-1 (A) 4.4 16:50:56 10° NW 16:58:21 77° SW 17:07:03 10° SSE
USA 306 3.5 16:56:21 10° WNW 17:00:26 44° N 17:03:35 16° ENE
SL-16 R/B 3.4 16:56:40 10° N 17:00:58 22° NE 17:04:15 14° E
Cosmos 1812 4.1 16:58:11 10° SE 17:01:00 20° E 17:02:43 15° NE
ISS -3.8 16:58:25 10° WNW 17:01:50 84° NNE 17:04:58 12° ESE
Meteor 1-25 Rocket 4.1 16:57:17 10° N 17:02:53 79° ENE 17:08:29 10° SSE
NOSS 2-2 (D) 4.2 16:59:04 10° NW 17:03:58 67° NE 17:10:51 10° SE
NOSS 2-2 (E) 4.3 16:59:14 10° NW 17:04:20 78° NE 17:11:31 10° SE
deb Chang Zheng 4 4.4 17:01:57 10° ESE 17:05:39 29° ENE 17:09:23 10° N
SMAP 3.0 17:01:27 10° SSE 17:06:06 82° ENE 17:10:47 10° NNW
Cosmos 2082 Rocket 2.9 17:01:31 10° SSE 17:06:32 33° ESE 17:10:43 14° NE
Cosmos 1939 Rocket 2.9 17:03:13 10° SSE 17:07:19 89° SW 17:11:26 10° NNW
Cosmos 858 Rocket 4.4 17:03:38 10° NNW 17:08:57 74° ENE 17:14:13 10° SSE
CORIOLIS 4.1 17:03:42 10° SSE 17:09:06 78° ENE 17:14:33 10° NNW
Cosmos 2333 Rocket 4.1 17:09:03 10° N 17:11:05 12° NNE 17:12:25 11° NE
Cosmos 44 Rocket 4.0 17:06:39 10° NNW 17:11:09 32° NE 17:14:23 16° E
CZ-4B DEB 4.1 17:09:58 10° SSE 17:15:28 77° ENE 17:20:59 10° NNW
Cosmos 2278 3.9 17:10:25 10° NNW 17:15:59 49° NE 17:21:30 10° SE
Cosmos 1602 3.6 17:12:33 10° N 17:16:26 84° E 17:20:18 10° S
Cosmos 1627 Rocket 4.4 17:12:26 10° N 17:18:39 77° E 17:24:46 10° SSE
USA 307 3.5 17:15:09 10° WNW 17:19:16 44° N 17:21:38 22° ENE
AQUARIUS 4.2 17:15:32 10° SSE 17:20:01 87° WSW 17:24:33 10° NNW
Cosmos 540 Rocket 3.4 17:16:25 10° S 17:21:27 64° ESE 17:26:07 12° NNE
Cosmos 2034 Rocket 4.3 17:16:46 10° SSW 17:22:53 68° WNW 17:29:03 10° N
COSMO-SKYMED 1 3.3 17:23:24 20° NE 17:25:37 31° E 17:29:29 10° SSE
ARGOS 3.4 17:20:36 10° SE 17:25:41 44° ENE 17:30:47 10° N
Cosmos 2279 Rocket 4.3 17:20:48 10° SSE 17:26:37 44° E 17:32:27 10° NNE
COSMOS 2406 3.2 17:21:23 10° SSW 17:27:06 74° ESE 17:32:10 14° NNE
Cosmos 1833 Rocket 2.7 17:22:47 10° SSW 17:28:25 87° WNW 17:33:42 12° NNE
Meteor 2-21 4.4 17:23:32 10° N 17:29:40 82° E 17:35:43 10° SSE
Cosmos 1782 2.7 17:25:57 10° S 17:29:55 68° E 17:33:48 10° NNE
Cosmos 1814 Rocket 4.5 17:26:17 10° S 17:31:04 38° ESE 17:33:44 22° NE
ATLAS 5 CENTAUR R/B 2.8 17:22:54 10° NW 17:31:33 45° NNE 17:33:08 28° ENE
Cosmos 1633 Rocket 3.2 17:30:07 10° N 17:34:22 47° ENE 17:38:35 10° SSE
ATLAS CENTAUR R/B 3.8 17:32:23 10° WNW 17:35:08 16° NNW 17:37:49 11° NNE
Cosmos 1818 3.8 17:29:58 10° NNW 17:35:19 48° NE 17:38:50 20° ESE
Cosmos 468 Rocket 4.4 17:31:00 10° SW 17:36:06 64° WNW 17:41:19 10° NNE
Cosmos 2219 Rocket 4.1 17:33:59 10° N 17:36:21 12° NNE 17:36:27 12° NNE
YAOGAN 1 3.9 17:39:35 22° NNE 17:39:35 22° NNE 17:41:46 10° N
ERBS 3.8 17:37:50 10° WNW 17:40:26 22° N 17:41:01 21° N
GEOS 3 Rocket 4.0 17:37:58 24° E 17:40:46 44° NE 17:45:40 10° NNW
CZ-2D R/B 3.3 17:36:59 10° S 17:40:48 80° WSW 17:44:39 10° NNW
USA 308 3.4 17:37:46 10° WNW 17:41:52 44° N 17:43:14 33° NE
Cosmos 1634 Rocket 4.0 17:37:10 10° S 17:43:30 87° E 17:49:53 10° N
SJ-11-01 4.3 17:38:56 10° SSE 17:43:34 57° ENE 17:48:14 10° N
COSMOS 2455 2.8 17:38:22 10° SSW 17:44:20 70° ESE 17:48:14 23° NE
CZ-2C R/B 2.7 17:40:35 13° NNE 17:45:06 51° E 17:50:07 10° S
PAYLOAD B 4.3 17:39:42 10° SSE 17:45:19 81° WSW 17:50:57 10° NNW
Cosmos 1500 3.4 17:42:13 10° NNW 17:45:57 68° W 17:49:38 10° S
Cosmos 2026 Rocket 4.2 17:41:18 10° NNW 17:47:26 71° W 17:53:27 10° S
CZ-4B R/B 3.0 17:42:25 10° SSE 17:47:50 78° ENE 17:53:11 10° NNW
Cosmos 1151 Rocket 3.0 17:44:41 10° S 17:48:56 59° E 17:51:27 24° NNE
Lacrosse 5 rocket 1.4 17:46:01 10° NW 17:49:50 53° NNE 17:50:36 45° ENE
Okean O Rocket 1.5 17:47:27 10° SSE 17:51:52 66° ENE 17:56:19 10° N
CZ-4 R/B 3.7 17:59:39 12° N 17:59:39 12° N 18:00:04 10° N
Cosmos 2208 Rocket 4.3 17:55:03 10° S 18:00:12 48° ESE 18:01:40 38° ENE
Cosmos 1666 Rocket 3.6 17:55:46 10° NNW 18:00:14 81° W 18:04:39 10° S
CZ-4 R/B 4.3 17:57:04 10° SSE 18:01:11 76° ENE 18:05:20 10° N
Meteor 1-11 Rocket 3.9 17:56:53 10° N 18:02:16 45° ENE 18:05:45 21° SE
Meteor 1-10 Rocket 4.5 17:57:52 10° SSE 18:03:19 45° E 18:04:52 36° NE
Cosmos 1470 Rocket 3.6 17:59:04 10° N 18:03:28 55° ENE 18:07:51 10° SSE
Cosmos 2150 Rocket 4.1 17:58:30 10° NNW 18:03:33 50° ENE 18:04:48 41° ESE
H-2A R/B 2.5 17:58:56 10° S 18:04:03 61° W 18:09:03 10° NNW
USA 267 3.4 18:01:04 28° NE 18:04:42 69° NNW 18:11:12 10° WSW
Cosmos 1655 Rocket 4.0 17:59:11 10° N 18:05:31 59° ENE 18:11:47 10° SSE
Cosmos 1328 Rocket 3.5 18:02:05 10° S 18:06:28 65° E 18:07:30 48° NE
Cosmos 2360 Rocket 3.2 18:03:06 10° NNW 18:07:10 27° NNE 18:07:10 27° NNE
Landsat 5 3.5 18:08:41 53° SE 18:08:41 53° SE 18:12:11 10° S
USA 305 3.1 18:04:27 10° WNW 18:08:35 50° NNE 18:08:46 50° NNE
SKYMED 2 3.5 18:12:01 35° NNE 18:13:51 89° WNW 18:18:12 10° SSW
Cosmos 2180 Rocket 4.4 18:08:58 10° S 18:15:17 77° E 18:21:34 10° NNE
Cosmos 1666 3.2 18:11:45 10° NNW 18:15:24 56° W 18:19:02 10° S
Cosmos 841 Rocket 3.9 18:10:33 10° SW 18:15:39 62° WNW 18:18:54 22° NNE
Feng Yun 1-1 Rocket 4.2 18:11:22 10° SSE 18:17:17 75° ENE 18:23:08 10° NNW
Meteor 2-8 Rocket 4.3 18:12:43 10° S 18:18:52 79° E 18:25:03 10° NNE
ATLAS CENTAUR R/B 2.5 18:11:55 10° WSW 18:19:52 62° NNW 18:20:43 50° NNE
Cosmos 1125 Rocket 3.4 18:16:28 10° NNW 18:21:42 64° ENE 18:22:14 60° E
Cosmos 2322 Rocket 2.3 18:22:34 10° NNW 18:27:49 52° NE 18:27:49 52° NE
NOSS 3-4 (A) 4.5 18:27:50 10° NW 18:33:44 33° NNE 18:33:58 33° NNE
NOSS 3-4 (C) 4.5 18:27:56 10° NW 18:33:50 33° NNE 18:34:04 33° NNE
Cosmos 1980 Rocket 3.6 18:28:43 10° NW 18:33:52 37° WSW 18:38:58 10° S
SL-08 RB Rocket 3.9 18:30:33 10° S 18:35:10 70° WSW 18:39:47 10° NNW
ATLAS 2AS CENTAUR R/B 3.9 18:29:55 10° NW 18:36:15 28° N 18:37:27 26° NNE
Cosmos 1812 4.1 18:32:54 10° SW 18:36:29 37° WNW 18:37:47 28° NNW
ISS -1.6 18:35:32 10° W 18:37:58 25° SW 18:37:58 25° SW
USA 306 3.8 18:36:34 10° WNW 18:39:35 42° NW 18:39:35 42° NW
CZ-4C R/B 3.6 18:37:55 10° NW 18:45:00 56° WSW 18:53:11 10° SSE
SL-16 R/B 2.0 18:40:12 10° NNW 18:45:56 87° ENE 18:46:11 82° SE
Cosmos 2082 Rocket 3.0 18:44:58 10° SW 18:50:28 48° NW 18:52:35 33° N
Cosmos 44 Rocket 3.8 18:48:08 10° NW 18:52:57 55° WSW 18:53:10 54° SW
Cosmos 2333 Rocket 3.8 18:52:00 10° NNW 18:54:26 22° N 18:54:26 22° N
COSMO-SKYMED 1 4.2 19:00:37 27° NW 19:01:46 32° WNW 19:05:37 10° SW
GEOS 3 Rocket 4.4 19:19:06 48° WSW 19:19:06 48° WSW 19:23:49 10° NW
Cosmos 2219 Rocket 4.2 19:16:40 10° NNW 19:18:11 18° N 19:18:11 18° N
CZ-2C R/B 4.4 19:22:06 16° NNW 19:25:08 27° WNW 19:29:25 10° WSW
Okean O Rocket 4.5 19:25:56 10° SW 19:28:40 16° W 19:31:26 10° NW
Lacrosse 5 rocket 4.1 19:25:11 10° WNW 19:26:12 16° WNW 19:26:12 16° WNW
COSMOS 2455 4.2 19:25:24 10° W 19:30:47 32° NW 19:31:23 32° NNW
BREEZE-M DEB (TANK) 4.4 19:27:13 10° SW 19:44:57 67° SSW 19:44:57 67° SSW
USA 267 4.1 19:48:24 42° NNW 19:48:24 42° NNW 19:53:26 10° WNW
Cosmos 2360 Rocket 4.1 19:46:48 10° NNW 19:48:57 24° NW 19:48:57 24° NW
Cosmos 2322 Rocket 4.3 20:07:03 10° NW 20:09:40 23° WNW 20:09:40 23° WNW
ATLAS 2AS CENTAUR R/B 4.5 20:21:48 10° NW 20:24:52 25° NNW 20:24:52 25° NNW
